[Iaude] MPEC V74: 2016 VQ2 [a=1.97,e=0.50,i=11.1,H=23.5]

mpec at si.edu mpec at si.edu
Tue Nov 8 19:26:28 EST 2016


M.P.E.C. 2016-V74                                Issued 2016 Nov.  9, 00:22 UT
 
     The Minor Planet Electronic Circulars contain information on unusual
         minor planets and routine data on comets.  They are published
    on behalf of Division F of the International Astronomical Union by the
          Minor Planet Center, Smithsonian Astrophysical Observatory,
                          Cambridge, MA 02138, U.S.A.

             Prepared using the Tamkin Foundation Computer Network

                              MPC at CFA.HARVARD.EDU
            URL http://www.minorplanetcenter.net/    ISSN 1523-6714


                                   2016 VQ2
 
Observations:
     K16V02Q* C2016 11 07.18619 00 49 01.02 -02 31 52.4          18.2 VqEV074703
     K16V02Q  C2016 11 07.19286 00 49 05.96 -02 28 54.5          18.2 VqEV074703
     K16V02Q  C2016 11 07.19955 00 49 10.92 -02 25 58.8          18.3 VqEV074703
     K16V02Q  C2016 11 07.20623 00 49 15.83 -02 23 01.8          18.1 VqEV074703
     K16V02Q  C2016 11 07.23489 00 49 37.09 -02 10 22.9          18.4 VqEV074703
     K16V02Q  C2016 11 07.24144 00 49 41.93 -02 07 30.0          17.9 VqEV074703
     K16V02Q  C2016 11 07.24801 00 49 46.77 -02 04 35.8          18.5 VqEV074703
     K16V02Q  C2016 11 07.25458 00 49 51.63 -02 01 44.0          18.0 VqEV074703
     K16V02Q  C2016 11 07.25569 00 49 52.48 -02 01 10.9          18.0 RoEV074926
     K16V02Q  C2016 11 07.25650 00 49 53.07 -02 00 49.9          18.1 RoEV074926
     K16V02Q  C2016 11 07.25733 00 49 53.67 -02 00 28.2          17.8 RoEV074926
     K16V02Q  C2016 11 07.28712 00 50 15.75 -01 47 22.9          17.9 RoEV074926
     K16V02Q  C2016 11 07.28793 00 50 16.35 -01 47 01.8          17.7 RoEV074926
     K16V02Q  C2016 11 07.28875 00 50 16.96 -01 46 40.1          17.7 RoEV074926
     K16V02Q KC2016 11 07.77589 00 56 52.30 +01 41 43.0          18.0 RqEV074587
     K16V02Q KC2016 11 07.77789 00 56 53.76 +01 42 33.3                qEV074587
     K16V02Q KC2016 11 07.77989 00 56 55.19 +01 43 23.8                qEV074587
     K16V02Q KC2016 11 07.78189 00 56 56.65 +01 44 13.9                qEV074587
     K16V02Q KC2016 11 07.84763 00 57 45.16 +02 11 29.0                qEV074J95
     K16V02Q KC2016 11 07.85306 00 57 49.07 +02 13 44.7                qEV074J95
     K16V02Q KC2016 11 07.85573 00 57 51.38 +02 15 12.0          17.9 VUEV074958
     K16V02Q KC2016 11 07.85594 00 57 51.14 +02 14 56.6                qEV074J95
     K16V02Q KC2016 11 07.85912 00 57 53.81 +02 16 36.1          18.3 VUEV074958
     K16V02Q KC2016 11 07.85987 00 57 53.96 +02 16 34.9          17.9 RqEV074J95
     K16V02Q KC2016 11 07.86251 00 57 56.20 +02 18 00.9          17.8 VUEV074958
     K16V02Q KC2016 11 07.92419 00 58 38.29 +02 43 27.8                UEV074204
     K16V02Q KC2016 11 07.92679 00 58 40.15 +02 44 32.5                UEV074204
     K16V02Q KC2016 11 07.92942 00 58 42.00 +02 45 37.5                UEV074204
     K16V02Q KC2016 11 07.93205 00 58 43.87 +02 46 42.5                UEV074204
     K16V02Q KC2016 11 07.93461 00 58 45.67 +02 47 46.0          18.0 GUEV074204
     K16V02Q KC2016 11 07.97794 00 59 18.19 +03 05 25.4          17.6 VUEV074J69
     K16V02Q KC2016 11 07.98232 00 59 21.30 +03 07 13.0          17.8 VUEV074J69
     K16V02Q KC2016 11 07.98669 00 59 24.42 +03 09 00.5          17.9 VUEV074J69
     K16V02Q KC2016 11 07.99107 00 59 27.58 +03 10 48.0          17.8 VUEV074J69
     K16V02Q  C2016 11 08.16810 01 01 48.02 +04 23 35.3          17.8 RoEV074926
     K16V02Q  C2016 11 08.16889 01 01 48.56 +04 23 54.0          17.7 RoEV074926
     K16V02Q  C2016 11 08.16969 01 01 49.11 +04 24 13.2          17.6 RoEV074926
     K16V02Q  C2016 11 08.17199 01 01 50.56 +04 24 41.9          18.1  rEV074718
     K16V02Q  C2016 11 08.17256 01 01 51.01 +04 24 56.9          18.0  rEV074718
     K16V02Q  C2016 11 08.17312 01 01 51.37 +04 25 09.7          18.2  rEV074718
     K16V02Q  C2016 11 08.17843 01 01 55.03 +04 27 17.6          17.8  rEV074718
     K16V02Q  C2016 11 08.17900 01 01 55.40 +04 27 31.7          17.9  rEV074718
     K16V02Q  C2016 11 08.17957 01 01 55.81 +04 27 46.3          18.3  rEV074718
     K16V02Q  C2016 11 08.18013 01 01 56.16 +04 27 59.5          17.7  rEV074718
     K16V02Q  C2016 11 08.18069 01 01 56.53 +04 28 12.0          18.4  rEV074718
     K16V02Q KC2016 11 08.76311 01 09 05.66 +08 14 18.3          17.6 RQEV074I57
     K16V02Q KC2016 11 08.76342 01 09 05.88 +08 14 24.8          17.7 RQEV074I57
     K16V02Q KC2016 11 08.77932 01 09 16.53 +08 20 22.9          18.8 RQEV074I57
     K16V02Q KC2016 11 08.92706 01 10 50.96 +09 14 48.5          17.8 RqEV074203
     K16V02Q KC2016 11 08.93856 01 10 58.39 +09 19 00.8          17.8 RqEV074203
 
Observer details:
203 GiaGa Observatory.  Observers S. Foglia, G. Galli.  Measurer G. Galli.
    0.28-m f/6.8 Schmidt-Cassegrain + CCD.
204 Schiaparelli Observatory.  Observer L. Buzzi.  0.60-m f/4.64 reflector
    + CCD.
587 Sormano.  Observers A. Fumagalli, A. Testa.  Measurer A. Testa.  0.5-m
    f/6.8 reflector + CCD.
703 Catalina Sky Survey.  Observer D. C. Fuls.  Measurers E. J. Christensen,
    D. C. Fuls, A. R. Gibbs, A. D. Grauer, J. A. Johnson, R. A. Kowalski,
    S. M. Larson, G. J. Leonard, R. G. Matheny, R. L. Seaman, F. C. Shelly.
    0.68-m Schmidt + CCD.
718 Tooele.  Observer P. Wiggins.  0.35-m f/5.5 Schmidt-Cassegrain + CCD.
926 Tenagra II Observatory.  Observers M. Schwartz, P. R. Holvorcem.  Measurer
    M. Schwartz.  0.81-m f/7 Ritchey-Chretien + CCD.
958 Observatoire de Dax.  Observers P. Dupouy, J. B. de Vanssay.  Measurer
    P. Dupouy.  0.43-m f/2.7 reflector + CCD.
I57 Elche.  Observer J. Lozano.  0.25-m f/6.3 Corrected Dall-Kirkham + CCD.
J69 North Observatory, Clanfield.  Observer D. Briggs.  0.41-m f/4.5 Newtonian
    reflector + CCD.
J95 Great Shefford.  Observer P. Birtwhistle.  0.40-m f/6.0 Schmidt-Cassegrain
    + CCD.
 
Orbital elements:
2016 VQ2                                                 Earth MOID = 0.0286 AU
Epoch 2016 July 31.0 TT = JDT 2457600.5                 MPC
M 333.87081              (2000.0)            P               Q
n   0.35589941     Peri.  327.21631     +0.96956625     -0.20295545
a   1.9720498      Node    45.15103     +0.24470176     +0.82135792
e   0.5045311      Incl.   11.13624     -0.00789550     +0.53308559
P   2.77           H   23.5           G   0.15           U   7
Residuals in seconds of arc
161107 703  0.2+  0.3-    161107 587  0.4-  0.2-    161108 926  0.5-  0.4+
161107 703  0.0   0.9+    161107 J95  0.2+  0.4-    161108 926  0.5-  0.0
161107 703  0.0   0.7-    161107 J95  0.1+  0.4-    161108 926  0.4-  0.1-
161107 703  0.6-  0.6-    161107 958  0.0   1.6+    161108 718  0.4-  0.8-
161107 703  0.1+  0.3+    161107 J95  0.1+  0.4-    161108 718  0.4+  0.4+
161107 703  0.1+  0.2+    161107 958  0.3+  1.1+    161108 718  0.1+  0.3-
161107 703  0.2-  1.0+    161107 J95  0.1-  0.2-    161108 718  0.2+  0.6-
161107 703  0.3-  0.6-    161107 958  0.0   1.2+    161108 718  0.2-  0.2-
161107 926  0.2+  0.4+    161107 204  0.1-  0.2-    161108 718  0.1+  0.6+
161107 926  0.1+  0.0     161107 204  0.1+  0.1+    161108 718  0.4-  0.3+
161107 926  0.1-  0.2-    161107 204  0.1-  0.1-    161108 718  0.6-  0.7-
161107 926  0.0   0.2+    161107 204  0.0   0.2-    161108 I57  0.2+  1.4+
161107 926  0.0   0.0     161107 204  0.2-  0.0     161108 I57  0.4+  0.9+
161107 926  0.0   0.1+    161107 J69  0.6+  1.2+    161108 I57  0.2+  0.6+
161107 587  0.2-  0.1-    161107 J69  0.4+  1.0+    161108 203  0.3-  1.1-
161107 587  0.1-  0.2-    161107 J69  0.4+  0.9+    161108 203  0.3-  1.0-
161107 587  0.5-  0.0     161107 J69  1.0+  0.7+

Ephemeris:
2016 VQ2                 a,e,i = 1.97, 0.50, 11                  q = 0.9771
Date    TT    R. A. (2000) Decl.     Delta      r     Elong.  Phase     V
2016 10 10    18 04 51.4 -65 09 51   0.1659  0.9776    78.0    92.5    22.8
...
2016 10 25    20 42 36.6 -63 02 37   0.08274 0.9894    84.2    91.1    21.3
...
2016 11 02    23 22 52.0 -40 15 40   0.04713 1.0094   110.0    67.5    19.3
...
2016 11 08    00 59 37.6 +03 16 31   0.04542 1.0300   149.1    29.6    18.1
2016 11 09    01 11 43.2 +09 42 55   0.04824 1.0338   153.4    25.4    18.2
2016 11 10    01 22 47.5 +15 21 04   0.05172 1.0378   156.3    22.6    18.2
...
2016 11 16    02 12 11.1 +35 27 43   0.08131 1.0640   156.7    21.6    19.2
...
2016 11 24    02 49 57.9 +44 46 59   0.1309  1.1044   151.8    24.9    20.5
...
2016 12 09    03 27 19.1 +48 38 52   0.2381  1.1933   147.9    26.1    22.0

A. U. Tomatic                (C) Copyright 2016 MPC           M.P.E.C. 2016-V74




More information about the Iaude mailing list